Flag for U.S.A. Weather past 2 weeks in Birmingham, Alabama, U.S.A.

Now
53 °F

Passing clouds.


Feels Like: 49 °F
Forecast: 41 / 55 °F
Wind: 14 mph from Northwest

Location: Birmingham International Airport

Current Time: Mar 27, 2015 at 1:12:55 PM

Latest Report: Mar 27, 2015 at 11:53 AM


Visibility: 10 mi

Pressure: 29.99 "Hg

Humidity: 47%

Dew point: 33 °F

Location of BirminghamLocation

Historic Weather in Birmingham — Graph

°F

Birmingham temperature yesterday

Maximum temperature yesterday: 75 °F (at 1:53 PM)
Minimum temperature yesterday: 48 °F (at 11:53 PM)
Average temperature yesterday: 66 °F

Past Weeks' High & Low Weather Summary

 TemperatureHumidityPressure
High81 °F (Mar 17, 3:53 PM)100% (Mar 15, 1:53 AM)30.29 "Hg (Mar 15, 1:53 AM)
Low43 °F (Mar 16, 5:53 AM)22% (Mar 15, 3:53 PM)29.76 "Hg (Mar 26, 5:53 PM)
Average61 °F74%30.08 "Hg
* Reported Mar 12 11:53 AM — Mar 27 11:53 AM, Birmingham, Weather by CustomWeather, © 2015

Note: Actual official high and low records may vary slightly from our data, if they occured in-between our weather recording intervals... More about our weather records

Advertising

Birmingham weather history for previous 24 hours

 ConditionsComfort  
Time TempWeatherWind HumidityBarometerVisibility
11:53 AM
Fri, Mar 27
53 °FPassing clouds.14 mph47%29.99 "Hg10 mi
10:53 AM50 °FPassing clouds.14 mph52%29.98 "Hg10 mi
9:53 AM48 °FScattered clouds.15 mph63%29.99 "Hg10 mi
8:53 AM44 °FOvercast.16 mph73%29.98 "Hg10 mi
7:53 AM44 °FOvercast.13 mph79%29.96 "Hg10 mi
6:53 AM44 °FOvercast.10 mph85%29.94 "Hg10 mi
5:53 AM44 °FOvercast.10 mph89%29.90 "Hg10 mi
4:53 AM44 °FOvercast.13 mph89%29.89 "Hg10 mi
3:53 AM45 °FOvercast.10 mph90%29.89 "Hg10 mi
2:53 AM46 °FLight rain. Overcast.14 mph93%29.88 "Hg10 mi
1:53 AM46 °FLight rain. Mostly cloudy.14 mph93%29.88 "Hg9 mi
12:53 AM48 °FLow clouds.12 mph93%29.88 "Hg10 mi
11:53 PM
Thu, Mar 26
48 °FRain. Fog.13 mph89%29.87 "Hg2 mi
10:53 PM52 °FPassing clouds.13 mph77%29.88 "Hg10 mi
10:03 PM54 °FMostly cloudy.14 mph74%29.88 "Hg10 mi
8:53 PM58 °FOvercast.16 mph75%29.86 "Hg10 mi
7:53 PM68 °FBroken clouds.12 mph76%29.80 "Hg10 mi
6:53 PM71 °FMostly cloudy.5 mph57%29.78 "Hg10 mi
5:53 PM72 °FMostly cloudy.7 mph59%29.76 "Hg10 mi
4:53 PM73 °FMostly cloudy.7 mph57%29.79 "Hg10 mi
3:53 PM74 °FMostly cloudy.9 mph52%29.80 "Hg10 mi
2:53 PM75 °FMostly cloudy.8 mph52%29.80 "Hg10 mi
1:53 PM75 °FBroken clouds.9 mph50%29.83 "Hg10 mi
Weather by CustomWeather, © 2015

See weather overviewHow to use our weather pages